When you browse on this site, cookies collect data to enhance your experience and personalize the content and advertising you see.
Visit our Privacy Policy to learn more. By continuing to use the site, you agree to this use of cookies and data.

Hourly Weather Vorozhino

Today, 9 August, Sunday

Time Temperature Precipitation Wind Pressure Humidity
00:00 +16°C° 0 mm 1 mps 745 mmHg 95%
01:00 +15°C° 0 mm 1 mps 745 mmHg 96%
02:00 +15°C° 0 mm 1 mps 745 mmHg 96%
03:00 +15°C° 0 mm 1 mps 744 mmHg 97%
04:00 +15°C° 0 mm 1 mps 744 mmHg 97%
05:00 +15°C° 0 mm 1 mps 744 mmHg 97%
06:00 +18°C° 0 mm 1 mps 744 mmHg 89%
07:00 +19°C° 0 mm 2 mps 744 mmHg 81%
08:00 +21°C° 0 mm 2 mps 744 mmHg 74%
09:00 +23°C° 0 mm 2 mps 744 mmHg 68%
10:00 +24°C° 0 mm 2 mps 744 mmHg 63%
11:00 +26°C° 0 mm 2 mps 744 mmHg 57%
12:00 +25°C° 0.2 mm 2 mps 744 mmHg 60%
13:00 +25°C° 0.2 mm 2 mps 743 mmHg 63%
14:00 +25°C° 0.2 mm 2 mps 743 mmHg 66%
15:00 +25°C° 0.5 mm 2 mps 743 mmHg 71%
16:00 +24°C° 0.5 mm 2 mps 743 mmHg 76%
17:00 +24°C° 0.5 mm 2 mps 742 mmHg 81%
18:00 +22°C° 0.3 mm 1 mps 742 mmHg 85%
19:00 +21°C° 0.3 mm 1 mps 742 mmHg 90%
20:00 +19°C° 0.3 mm 1 mps 742 mmHg 94%
21:00 +19°C° 0 mm 1 mps 742 mmHg 94%
22:00 +18°C° 0 mm 1 mps 743 mmHg 95%
23:00 +16°C° 0 mm 0 mps 743 mmHg 95%

Tomorrow, 10 August, Monday

Time Temperature Precipitation Wind Pressure Humidity
00:00 +15°C° 0 mm 0 mps 743 mmHg 95%
01:00 +15°C° 0 mm 0 mps 743 mmHg 95%
02:00 +15°C° 0 mm 0 mps 743 mmHg 95%
03:00 +15°C° 0 mm 0 mps 742 mmHg 96%
04:00 +15°C° 0 mm 0 mps 742 mmHg 96%
05:00 +15°C° 0 mm 0 mps 742 mmHg 96%
06:00 +18°C° 0 mm 1 mps 742 mmHg 92%
07:00 +20°C° 0 mm 1 mps 742 mmHg 88%
08:00 +22°C° 0 mm 1 mps 742 mmHg 83%
09:00 +23°C° 0 mm 1 mps 742 mmHg 73%
10:00 +25°C° 0 mm 2 mps 742 mmHg 63%
11:00 +27°C° 0 mm 2 mps 742 mmHg 53%
12:00 +27°C° 0.1 mm 2 mps 742 mmHg 52%
13:00 +27°C° 0.1 mm 2 mps 741 mmHg 51%
14:00 +28°C° 0.1 mm 2 mps 741 mmHg 50%
15:00 +26°C° 0.7 mm 2 mps 741 mmHg 61%
16:00 +24°C° 0.7 mm 2 mps 741 mmHg 73%
17:00 +22°C° 0.7 mm 3 mps 740 mmHg 84%
18:00 +20°C° 0.2 mm 2 mps 741 mmHg 87%
19:00 +19°C° 0.2 mm 2 mps 741 mmHg 91%
20:00 +18°C° 0.2 mm 2 mps 741 mmHg 94%
21:00 +17°C° 0 mm 2 mps 741 mmHg 94%
22:00 +16°C° 0 mm 2 mps 741 mmHg 94%
23:00 +14°C° 0 mm 2 mps 741 mmHg 93%

Day after tomorrow, 11 August, Tuesday

Time Temperature Precipitation Wind Pressure Humidity
00:00 +13°C° 0 mm 2 mps 741 mmHg 95%
01:00 +12°C° 0 mm 2 mps 742 mmHg 96%
02:00 +10°C° 0 mm 2 mps 742 mmHg 97%
03:00 +10°C° 0 mm 2 mps 742 mmHg 97%
04:00 +10°C° 0 mm 2 mps 742 mmHg 97%
05:00 +9°C° 0 mm 2 mps 742 mmHg 97%
06:00 +10°C° 0 mm 3 mps 742 mmHg 95%
07:00 +11°C° 0 mm 3 mps 742 mmHg 92%
08:00 +12°C° 0 mm 3 mps 742 mmHg 89%
09:00 +12°C° 0 mm 3 mps 742 mmHg 86%
10:00 +12°C° 0 mm 4 mps 742 mmHg 82%
11:00 +13°C° 0 mm 4 mps 743 mmHg 79%
12:00 +13°C° 0 mm 4 mps 743 mmHg 76%
13:00 +13°C° 0 mm 4 mps 743 mmHg 73%
14:00 +14°C° 0 mm 4 mps 743 mmHg 70%
15:00 +14°C° 0 mm 4 mps 743 mmHg 71%
16:00 +14°C° 0 mm 4 mps 743 mmHg 72%
17:00 +14°C° 0 mm 4 mps 743 mmHg 73%
18:00 +14°C° 0 mm 4 mps 743 mmHg 76%
19:00 +13°C° 0 mm 4 mps 743 mmHg 79%
20:00 +12°C° 0 mm 3 mps 743 mmHg 81%
21:00 +12°C° 0 mm 3 mps 743 mmHg 82%
22:00 +12°C° 0 mm 3 mps 743 mmHg 82%
23:00 +12°C° 0 mm 3 mps 743 mmHg 82%

12 August, Wednesday

Time Temperature Precipitation Wind Pressure Humidity
00:00 +11°C° 0 mm 3 mps 743 mmHg 84%
01:00 +11°C° 0 mm 3 mps 743 mmHg 86%
02:00 +10°C° 0 mm 3 mps 743 mmHg 88%
03:00 +10°C° 0 mm 3 mps 743 mmHg 91%
04:00 +9°C° 0 mm 3 mps 743 mmHg 93%
05:00 +8°C° 0 mm 3 mps 743 mmHg 96%
06:00 +10°C° 0 mm 3 mps 743 mmHg 89%
07:00 +12°C° 0 mm 3 mps 743 mmHg 82%
08:00 +13°C° 0 mm 3 mps 743 mmHg 75%
09:00 +16°C° 0 mm 3 mps 743 mmHg 70%
10:00 +17°C° 0 mm 3 mps 744 mmHg 65%
11:00 +18°C° 0 mm 3 mps 744 mmHg 60%
12:00 +18°C° 0.1 mm 3 mps 743 mmHg 61%
13:00 +17°C° 0.1 mm 3 mps 743 mmHg 62%
14:00 +17°C° 0.1 mm 4 mps 743 mmHg 62%
15:00 +17°C° 0 mm 3 mps 743 mmHg 63%
16:00 +16°C° 0 mm 3 mps 743 mmHg 64%
17:00 +16°C° 0 mm 2 mps 743 mmHg 65%
18:00 +15°C° 0 mm 2 mps 743 mmHg 68%
19:00 +14°C° 0 mm 2 mps 743 mmHg 71%
20:00 +13°C° 0 mm 2 mps 743 mmHg 74%
21:00 +12°C° 0 mm 2 mps 743 mmHg 78%
22:00 +10°C° 0 mm 2 mps 743 mmHg 82%
23:00 +9°C° 0 mm 2 mps 743 mmHg 86%

13 August, Thursday

Time Temperature Precipitation Wind Pressure Humidity
00:00 +10°C° 0 mm 1 mps 743 mmHg 86%
01:00 +9°C° 0 mm 1 mps 743 mmHg 87%
02:00 +9°C° 0 mm 1 mps 743 mmHg 88%
03:00 +9°C° 0 mm 1 mps 743 mmHg 89%
04:00 +9°C° 0 mm 1 mps 743 mmHg 89%
05:00 +9°C° 0 mm 1 mps 743 mmHg 90%
06:00 +10°C° 0 mm 2 mps 743 mmHg 82%
07:00 +12°C° 0 mm 2 mps 743 mmHg 75%
08:00 +14°C° 0 mm 2 mps 742 mmHg 67%
09:00 +15°C° 0 mm 2 mps 742 mmHg 62%
10:00 +16°C° 0 mm 2 mps 742 mmHg 57%
11:00 +17°C° 0 mm 2 mps 742 mmHg 52%
12:00 +18°C° 0 mm 2 mps 742 mmHg 52%
13:00 +18°C° 0 mm 2 mps 741 mmHg 52%
14:00 +18°C° 0 mm 2 mps 741 mmHg 52%
15:00 +19°C° 0 mm 1 mps 741 mmHg 57%
16:00 +18°C° 0 mm 1 mps 741 mmHg 61%
17:00 +18°C° 0 mm 1 mps 741 mmHg 65%
18:00 +15°C° 0 mm 1 mps 740 mmHg 72%
19:00 +14°C° 0 mm 1 mps 740 mmHg 79%
20:00 +12°C° 0 mm 1 mps 740 mmHg 86%
21:00 +12°C° 0 mm 1 mps 740 mmHg 88%
22:00 +12°C° 0 mm 1 mps 740 mmHg 90%
23:00 +12°C° 0 mm 1 mps 740 mmHg 93%

14 August, Friday

Time Temperature Precipitation Wind Pressure Humidity
00:00 +12°C° 0 mm 1 mps 740 mmHg 94%
01:00 +12°C° 0 mm 1 mps 740 mmHg 94%
02:00 +12°C° 0 mm 1 mps 739 mmHg 95%
03:00 +12°C° 0 mm 1 mps 739 mmHg 96%
04:00 +12°C° 0 mm 1 mps 739 mmHg 96%
05:00 +12°C° 0 mm 1 mps 739 mmHg 97%
06:00 +13°C° 0 mm 1 mps 739 mmHg 93%
07:00 +13°C° 0 mm 1 mps 739 mmHg 89%
08:00 +14°C° 0 mm 2 mps 739 mmHg 85%
09:00 +15°C° 0.1 mm 2 mps 739 mmHg 75%
10:00 +16°C° 0.1 mm 2 mps 740 mmHg 65%
11:00 +18°C° 0.1 mm 3 mps 740 mmHg 55%
12:00 +18°C° 0 mm 3 mps 740 mmHg 53%
13:00 +18°C° 0 mm 3 mps 740 mmHg 50%
14:00 +18°C° 0 mm 3 mps 740 mmHg 48%
15:00 +18°C° 0 mm 3 mps 740 mmHg 50%
16:00 +17°C° 0 mm 3 mps 740 mmHg 52%
17:00 +17°C° 0 mm 3 mps 740 mmHg 53%
18:00 +15°C° 0 mm 2 mps 740 mmHg 62%
19:00 +13°C° 0 mm 2 mps 741 mmHg 70%
20:00 +10°C° 0 mm 1 mps 741 mmHg 79%
21:00 +10°C° 0 mm 1 mps 741 mmHg 81%
22:00 +9°C° 0 mm 1 mps 741 mmHg 84%
23:00 +8°C° 0 mm 1 mps 741 mmHg 87%
Show more